�������l�o���
Date,Time,MP-1(��Sv/h),MP-2(��Sv/h),MP-3(��Sv/h),MP-4(��Sv/h),MP-5(��Sv/h),MP-6(��Sv/h),MP-7(��Sv/h),MP-8(��Sv/h),����,����(m/s),���J
2017/03/26,00:00,1.031,1.692,1.168,2.004,1.390,0.545,1.002,0.932,�k��,2.3,��
2017/03/26,00:10,1.032,1.697,1.166,2.001,1.389,0.544,1.003,0.931,�k�k��,2.3,��
2017/03/26,00:20,1.032,1.695,1.165,1.998,1.391,0.547,1.003,0.931,�k�k��,2.5,��
2017/03/26,00:30,1.031,1.691,1.166,2.000,1.391,0.546,1.004,0.932,�k�k��,3.0,��
2017/03/26,00:40,1.030,1.692,1.166,2.001,1.388,0.545,1.005,0.933,�k�k��,2.6,��
2017/03/26,00:50,1.030,1.692,1.168,2.000,1.391,0.546,1.004,0.933,�k�k��,3.1,��
2017/03/26,01:00,1.030,1.692,1.166,1.998,1.389,0.544,1.004,0.932,�k�k��,3.3,��
2017/03/26,01:10,1.029,1.692,1.164,2.000,1.390,0.544,1.002,0.931,�k�k��,3.4,��
2017/03/26,01:20,1.030,1.692,1.164,1.999,1.389,0.545,1.001,0.932,�k�k��,3.6,��
2017/03/26,01:30,1.031,1.694,1.166,1.998,1.390,0.546,1.002,0.929,�k�k��,3.1,��
2017/03/26,01:40,1.033,1.691,1.165,1.999,1.388,0.545,1.003,0.931,�k�k��,3.0,��
2017/03/26,01:50,1.031,1.688,1.164,2.001,1.390,0.544,1.001,0.932,�k�k��,2.8,��
2017/03/26,02:00,1.031,1.692,1.167,1.998,1.389,0.545,1.003,0.930,�k�k��,3.1,��
2017/03/26,02:10,1.030,1.693,1.165,2.002,1.390,0.544,1.000,0.932,�k�k��,3.2,��
2017/03/26,02:20,1.030,1.689,1.165,2.001,1.387,0.543,1.003,0.932,�k�k��,2.8,��
2017/03/26,02:30,1.028,1.692,1.167,2.001,1.391,0.545,1.003,0.931,�k�k��,3.1,��
2017/03/26,02:40,1.029,1.690,1.167,2.003,1.388,0.544,1.002,0.932,�k��,3.5,��
2017/03/26,02:50,1.028,1.691,1.165,2.000,1.383,0.544,1.002,0.932,�k��,3.5,��
2017/03/26,03:00,1.029,1.689,1.165,1.996,1.389,0.543,1.002,0.932,�k��,3.2,��
2017/03/26,03:10,1.030,1.688,1.164,1.997,1.387,0.545,1.002,0.930,�k��,3.4,��
2017/03/26,03:20,1.030,1.690,1.162,1.998,1.386,0.544,1.002,0.931,�k�k��,3.7,��
2017/03/26,03:30,1.031,1.692,1.163,2.002,1.386,0.545,1.002,0.932,�k�k��,3.8,��
2017/03/26,03:40,1.027,1.691,1.165,2.002,1.388,0.543,1.002,0.930,�k�k��,4.1,��
2017/03/26,03:50,1.029,1.692,1.165,1.999,1.389,0.544,1.003,0.932,�k�k��,3.8,��
2017/03/26,04:00,1.028,1.689,1.166,2.002,1.388,0.544,1.002,0.931,�k��,3.6,��
2017/03/26,04:10,1.029,1.694,1.164,1.999,1.388,0.544,1.002,0.932,�k��,3.3,��
2017/03/26,04:20,1.029,1.690,1.167,1.999,1.387,0.544,1.002,0.931,�k��,3.8,��
2017/03/26,04:30,1.028,1.690,1.163,1.999,1.389,0.544,1.002,0.930,�k��,3.1,��
2017/03/26,04:40,1.029,1.691,1.166,1.999,1.386,0.544,1.000,0.931,�k��,3.1,��
2017/03/26,04:50,1.028,1.692,1.166,1.999,1.386,0.545,1.002,0.931,�k��,2.6,��
2017/03/26,05:00,1.030,1.690,1.162,1.998,1.387,0.543,1.002,0.931,�k�k��,2.8,��
2017/03/26,05:10,1.029,1.688,1.163,1.998,1.388,0.542,1.001,0.929,�k�k��,3.2,��
2017/03/26,05:20,1.029,1.687,1.163,1.999,1.388,0.544,1.002,0.929,�k�k��,3.4,��
2017/03/26,05:30,1.027,1.689,1.161,1.998,1.388,0.543,1.003,0.933,�k�k��,2.6,��
2017/03/26,05:40,1.028,1.692,1.163,1.999,1.385,0.545,1.002,0.929,�k�k��,2.6,��
2017/03/26,05:50,1.028,1.689,1.164,1.999,1.388,0.543,1.001,0.930,�k�k��,2.3,��
2017/03/26,06:00,1.028,1.687,1.164,1.999,1.387,0.544,1.001,0.932,�k�k��,2.3,��
2017/03/26,06:10,1.029,1.688,1.164,2.001,1.385,0.543,1.002,0.930,�k�k��,2.5,��
2017/03/26,06:20,1.026,1.690,1.162,2.002,1.388,0.544,1.001,0.933,�k�k��,2.2,��
2017/03/26,06:30,1.030,1.688,1.162,1.999,1.386,0.544,1.002,0.931,�k�k��,1.7,��
2017/03/26,06:40,1.029,1.690,1.165,2.002,1.389,0.544,1.002,0.930,�k�k��,1.7,��
2017/03/26,06:50,1.029,1.693,1.166,2.003,1.388,0.544,1.001,0.931,�k�k��,2.0,��
2017/03/26,07:00,1.028,1.691,1.166,1.999,1.390,0.545,1.005,0.932,�k�k��,1.7,��
2017/03/26,07:10,1.032,1.690,1.165,2.000,1.390,0.545,1.002,0.933,�k,1.5,��
2017/03/26,07:20,1.031,1.692,1.166,2.000,1.389,0.544,1.004,0.931,�k�k��,2.2,��
2017/03/26,07:30,1.030,1.695,1.166,2.002,1.387,0.546,1.004,0.933,�k�k��,2.2,��
2017/03/26,07:40,1.031,1.692,1.167,2.002,1.391,0.544,1.003,0.933,�k�k��,1.4,��
2017/03/26,07:50,1.033,1.691,1.165,2.004,1.389,0.546,1.005,0.932,�k�k��,1.5,��
2017/03/26,08:00,1.032,1.693,1.168,2.003,1.389,0.544,1.005,0.932,�k�k��,1.5,��
2017/03/26,08:10,1.032,1.693,1.168,2.003,1.388,0.545,1.004,0.933,���k��,1.2,��
2017/03/26,08:20,1.033,1.695,1.168,2.002,1.390,0.544,1.005,0.933,�k��,0.8,��
2017/03/26,08:30,1.032,1.695,1.165,2.002,1.392,0.546,1.007,0.932,�k��,1.7,��
2017/03/26,08:40,1.035,1.693,1.169,2.006,1.391,0.546,1.004,0.933,�k�k��,2.3,��
2017/03/26,08:50,1.034,1.696,1.169,2.004,1.392,0.545,1.005,0.932,�k�k��,1.4,��
2017/03/26,09:00,1.033,1.697,1.169,2.006,1.389,0.546,1.005,0.934,�k,1.2,��
2017/03/26,09:10,1.036,1.696,1.167,2.005,1.392,0.544,1.004,0.934,�k,1.5,��
2017/03/26,09:20,1.035,1.694,1.170,2.004,1.392,0.546,1.005,0.932,�k,1.4,��
2017/03/26,09:30,1.037,1.695,1.167,2.005,1.392,0.547,1.004,0.933,-,CALM,��
2017/03/26,09:40,1.032,1.696,1.167,2.006,1.392,0.546,1.005,0.935,�k��,1.5,��
2017/03/26,09:50,1.035,1.697,1.168,2.005,1.393,0.546,1.004,0.935,�k�k��,1.2,��
2017/03/26,10:00,1.036,1.700,1.168,2.004,1.391,0.545,1.005,0.934,�k�k��,1.4,��
2017/03/26,10:10,1.034,1.698,1.168,2.005,1.393,0.546,1.004,0.936,�k�k��,1.7,��
2017/03/26,10:20,1.036,1.694,1.167,2.008,1.394,0.545,1.002,0.934,�k�k��,1.4,��
2017/03/26,10:30,1.034,1.695,1.171,2.006,1.391,0.545,1.004,0.935,�k��,1.2,��
2017/03/26,10:40,1.035,1.697,1.166,2.006,1.393,0.545,1.005,0.935,�k��,1.4,��
2017/03/26,10:50,1.036,1.696,1.169,2.008,1.394,0.545,1.003,0.934,�k�k��,2.2,��
2017/03/26,11:00,1.035,1.700,1.172,2.005,1.393,0.546,1.004,0.935,�k��,2.0,��
2017/03/26,11:10,1.036,1.699,1.169,2.007,1.396,0.548,1.004,0.933,�k,2.0,��
2017/03/26,11:20,1.036,1.698,1.172,2.008,1.393,0.546,1.003,0.934,�k�k��,2.6,��
2017/03/26,11:30,1.035,1.698,1.168,2.006,1.393,0.547,1.005,0.934,�k�k��,3.3,��
2017/03/26,11:40,1.038,1.700,1.168,2.008,1.396,0.545,1.002,0.934,�k,2.6,��
2017/03/26,11:50,1.035,1.697,1.164,2.008,1.394,0.546,1.003,0.933,�k�k��,2.0,��
2017/03/26,12:00,1.038,1.699,1.162,2.009,1.394,0.547,1.006,0.934,�k�k��,2.6,��
2017/03/26,12:10,1.038,1.697,1.163,2.007,1.395,0.546,1.004,0.936,�k�k��,2.6,��
2017/03/26,12:20,1.038,1.698,1.162,2.006,1.397,0.546,1.004,0.936,�k�k��,2.5,��
2017/03/26,12:30,1.037,1.696,1.164,2.009,1.397,0.547,1.003,0.937,�k��,2.8,��
2017/03/26,12:40,1.036,1.702,1.163,2.010,1.394,0.548,1.003,0.934,�k�k��,2.6,��
2017/03/26,12:50,1.038,1.697,1.164,2.009,1.394,0.547,1.004,0.935,�k��,2.3,��
2017/03/26,13:00,1.036,1.699,1.162,2.008,1.395,0.548,1.005,0.934,���k��,2.9,�L
2017/03/26,13:10,1.037,1.698,1.162,2.013,1.396,0.547,1.006,0.934,��,3.8,�L
2017/03/26,13:20,1.039,1.698,1.165,2.012,1.393,0.546,1.003,0.935,��,3.9,��
2017/03/26,13:30,1.041,1.700,1.164,2.010,1.393,0.546,1.004,0.935,��,4.2,��
2017/03/26,13:40,1.041,1.699,1.163,2.010,1.391,0.548,1.005,0.934,��,3.8,��
2017/03/26,13:50,1.040,1.700,1.161,2.008,1.393,0.548,1.003,0.934,��,3.3,��
2017/03/26,14:00,1.038,1.698,1.164,2.009,1.392,0.548,1.006,0.935,��,3.2,��
2017/03/26,14:10,1.039,1.697,1.161,2.009,1.392,0.548,1.005,0.936,���쓌,3.8,��
2017/03/26,14:20,1.037,1.697,1.163,2.011,1.396,0.547,1.003,0.933,��,3.2,��
2017/03/26,14:30,1.040,1.697,1.166,2.010,1.390,0.547,1.005,0.933,���쓌,3.8,��
2017/03/26,14:40,1.038,1.695,1.163,2.008,1.393,0.547,1.003,0.932,���쓌,4.5,��
2017/03/26,14:50,1.037,1.699,1.163,2.007,1.392,0.547,1.004,0.933,���쓌,5.1,�L
2017/03/26,15:00,1.039,1.699,1.163,2.007,1.395,0.547,1.006,0.932,���쓌,5.3,��
2017/03/26,15:10,1.036,1.699,1.162,2.011,1.394,0.548,1.005,0.935,���쓌,4.3,�L
2017/03/26,15:20,1.037,1.698,1.162,2.010,1.392,0.550,1.006,0.934,���쓌,5.1,��
2017/03/26,15:30,1.038,1.698,1.165,2.010,1.393,0.547,1.005,0.935,���쓌,4.2,��
2017/03/26,15:40,1.041,1.698,1.164,2.011,1.397,0.547,1.004,0.934,���쓌,5.1,��
2017/03/26,15:50,1.037,1.699,1.163,2.010,1.396,0.549,1.005,0.934,���쓌,4.7,��
2017/03/26,16:00,1.039,1.698,1.161,2.005,1.397,0.549,1.006,0.935,���쓌,4.7,�L
2017/03/26,16:10,1.037,1.698,1.161,2.012,1.396,0.548,1.003,0.935,���쓌,4.8,�L
2017/03/26,16:20,1.037,1.691,1.160,2.006,1.394,0.548,1.004,0.934,���쓌,5.9,�L
2017/03/26,16:30,1.036,1.695,1.160,2.007,1.396,0.547,1.005,0.934,���쓌,5.8,�L
2017/03/26,16:40,1.036,1.695,1.162,2.008,1.394,0.547,1.006,0.933,���쓌,5.8,�L
2017/03/26,16:50,1.037,1.697,1.161,2.006,1.395,0.548,1.005,0.932,���쓌,6.4,��
2017/03/26,17:00,1.036,1.696,1.162,2.011,1.394,0.548,1.006,0.933,���쓌,6.5,�L
2017/03/26,17:10,1.036,1.696,1.161,2.006,1.395,0.547,1.004,0.934,���쓌,6.6,�L
2017/03/26,17:20,1.036,1.697,1.159,2.007,1.393,0.547,1.004,0.933,���쓌,5.8,�L
2017/03/26,17:30,1.037,1.698,1.160,2.005,1.393,0.547,1.004,0.934,���쓌,6.3,�L
2017/03/26,17:40,1.036,1.695,1.161,2.006,1.393,0.546,1.005,0.932,�쓌,5.5,�L
2017/03/26,17:50,1.036,1.693,1.159,2.006,1.390,0.546,1.005,0.932,�쓌,4.8,�L
2017/03/26,18:00,1.034,1.691,1.159,2.003,1.390,0.548,1.003,0.931,���쓌,4.8,�L
2017/03/26,18:10,1.031,1.688,1.154,2.000,1.386,0.547,1.003,0.929,���쓌,4.8,�L
2017/03/26,18:20,1.028,1.682,1.155,1.998,1.380,0.546,1.001,0.929,���쓌,3.6,�L
2017/03/26,18:30,1.030,1.678,1.152,1.996,1.378,0.546,1.003,0.930,���쓌,3.5,�L
2017/03/26,18:40,1.026,1.678,1.150,1.992,1.378,0.545,1.001,0.929,���쓌,3.4,�L
2017/03/26,18:50,1.027,1.677,1.149,1.995,1.375,0.544,1.000,0.929,���쓌,3.8,�L
2017/03/26,19:00,1.029,1.674,1.150,1.993,1.377,0.545,0.999,0.928,��,3.0,�L
2017/03/26,19:10,1.026,1.674,1.149,1.991,1.374,0.546,0.998,0.928,��,2.5,�L
2017/03/26,19:20,1.026,1.670,1.147,1.987,1.371,0.543,1.001,0.928,���k��,3.0,�L
2017/03/26,19:30,1.025,1.671,1.147,1.986,1.369,0.544,1.000,0.927,�k��,2.0,�L
2017/03/26,19:40,1.022,1.663,1.147,1.990,1.370,0.546,0.999,0.928,���k��,2.8,�L
2017/03/26,19:50,1.024,1.667,1.145,1.984,1.368,0.545,1.000,0.928,�k��,3.1,�L
2017/03/26,20:00,1.024,1.664,1.142,1.987,1.367,0.544,0.999,0.927,���k��,3.0,�L
2017/03/26,20:10,1.022,1.665,1.144,1.986,1.364,0.544,0.998,0.928,�k��,3.3,�L
2017/03/26,20:20,1.020,1.662,1.144,1.985,1.367,0.545,0.999,0.928,�k��,3.6,�L
2017/03/26,20:30,1.020,1.660,1.143,1.980,1.362,0.544,0.997,0.927,�k��,2.6,�L
2017/03/26,20:40,1.019,1.661,1.140,1.983,1.361,0.544,0.998,0.926,�k�k��,2.0,�L
2017/03/26,20:50,1.015,1.658,1.140,1.976,1.357,0.542,0.997,0.926,�k�k��,3.0,�L
2017/03/26,21:00,1.018,1.656,1.139,1.976,1.357,0.543,0.997,0.927,�k�k��,3.7,�L
2017/03/26,21:10,1.016,1.654,1.138,1.976,1.354,0.542,0.997,0.923,�k�k��,4.0,�L
2017/03/26,21:20,1.016,1.654,1.135,1.972,1.356,0.542,0.997,0.924,�k��,3.6,�L
2017/03/26,21:30,1.016,1.649,1.135,1.975,1.354,0.541,0.998,0.924,�k�k��,3.8,�L
2017/03/26,21:40,1.017,1.648,1.134,1.969,1.354,0.542,0.995,0.924,�k,4.1,�L
2017/03/26,21:50,1.011,1.644,1.134,1.966,1.348,0.542,0.995,0.921,�k�k��,4.0,�L
2017/03/26,22:00,1.011,1.636,1.129,1.959,1.346,0.540,0.994,0.922,�k�k��,4.0,�L
2017/03/26,22:10,1.004,1.632,1.126,1.952,1.341,0.541,0.993,0.919,�k��,3.5,�L
2017/03/26,22:20,1.003,1.627,1.121,1.951,1.337,0.540,0.990,0.920,�k,2.3,�L
2017/03/26,22:30,1.002,1.626,1.120,1.946,1.335,0.539,0.990,0.919,�k�k��,2.9,�L
2017/03/26,22:40,1.000,1.626,1.122,1.942,1.334,0.538,0.989,0.920,�k�k��,3.8,�L
2017/03/26,22:50,0.998,1.620,1.120,1.938,1.331,0.538,0.989,0.920,�k��,3.5,�L
2017/03/26,23:00,0.997,1.618,1.117,1.938,1.330,0.539,0.987,0.920,�k��,4.1,�L
2017/03/26,23:10,0.997,1.620,1.115,1.933,1.329,0.538,0.988,0.919,�k��,4.8,�L
2017/03/26,23:20,0.998,1.618,1.115,1.932,1.326,0.537,0.987,0.919,�k��,4.3,�L
2017/03/26,23:30,0.992,1.618,1.112,1.936,1.326,0.537,0.987,0.918,�k��,4.3,�L
2017/03/26,23:40,0.995,1.616,1.114,1.931,1.328,0.536,0.988,0.916,�k��,5.1,�L
2017/03/26,23:50,0.992,1.618,1.112,1.932,1.329,0.538,0.987,0.918,�k��,5.0,�L
